timestamp,wind_dir_avg,wind_spd_avg,wind_spd_max_dir,wind_spd_gust,battery_voltage,lat,long
2022-03-02 00:04:00+00:00,289.0,8.33,274.0,16.78,12.41,47.59359,-54.27349
2022-03-02 00:14:01+00:00,284.0,7.11,284.0,11.11,12.33,47.59359,-54.27349
2022-03-02 00:24:01+00:00,286.0,7.21,286.0,9.15,12.33,47.59359,-54.27349
2022-03-02 00:34:01+00:00,299.0,8.39,294.0,10.95,12.33,47.59359,-54.27349
2022-03-02 00:44:01+00:00,287.0,7.62,303.0,9.78,12.33,47.59359,-54.27349
2022-03-02 00:54:01+00:00,274.0,7.15,276.0,11.54,12.33,47.59359,-54.27349
2022-03-02 01:04:01+00:00,278.0,8.2,277.0,10.1,12.33,47.59359,-54.27349
2022-03-02 01:14:01+00:00,256.0,7.66,253.0,10.01,12.33,47.59359,-54.27349
2022-03-02 01:24:01+00:00,268.0,8.46,270.0,10.27,12.33,47.59359,-54.27349
2022-03-02 01:34:01+00:00,283.0,9.3,285.0,10.91,12.33,47.59359,-54.27349
2022-03-02 01:44:01+00:00,284.0,8.95,289.0,10.81,12.33,47.59359,-54.27349
2022-03-02 01:54:01+00:00,273.0,8.43,273.0,10.36,12.33,47.59359,-54.27349
2022-03-02 02:04:01+00:00,280.0,7.61,283.0,8.63,12.33,47.59359,-54.27349
2022-03-02 02:14:01+00:00,284.0,7.7,285.0,9.01,12.25,47.59359,-54.27349
2022-03-02 02:24:01+00:00,283.0,7.61,274.0,9.23,12.25,47.59359,-54.27349
2022-03-02 02:34:01+00:00,277.0,7.8,277.0,9.73,12.25,47.59359,-54.27349
2022-03-02 02:44:01+00:00,296.0,7.59,293.0,11.99,12.25,47.59359,-54.27349
2022-03-02 02:54:01+00:00,300.0,8.57,292.0,10.9,12.25,47.59359,-54.27349
2022-03-02 03:04:01+00:00,299.0,8.46,294.0,11.33,12.25,47.59359,-54.27349
2022-03-02 03:14:00+00:00,296.0,10.25,300.0,11.68,12.25,47.59359,-54.27349
2022-03-02 03:24:00+00:00,293.0,8.7,295.0,11.12,12.25,47.59359,-54.27349
2022-03-02 03:34:00+00:00,285.0,6.86,286.0,9.08,12.25,47.59359,-54.27349
2022-03-02 03:44:00+00:00,294.0,9.36,298.0,11.7,12.25,47.59359,-54.27349
2022-03-02 03:54:00+00:00,295.0,9.26,290.0,11.11,12.25,47.59359,-54.27349
2022-03-02 04:04:00+00:00,299.0,9.2,293.0,11.31,12.25,47.59359,-54.27349
2022-03-02 04:14:00+00:00,291.0,9.61,290.0,11.02,12.17,47.59359,-54.27349
2022-03-02 04:24:00+00:00,299.0,5.98,290.0,9.31,12.17,47.59359,-54.27349
2022-03-02 04:34:00+00:00,347.0,1.93,296.0,4.42,12.17,47.59359,-54.27349
2022-03-02 04:44:00+00:00,288.0,3.44,277.0,6.06,12.17,47.59359,-54.27349
2022-03-02 04:54:00+00:00,280.0,8.29,278.0,11.76,12.17,47.59359,-54.27349
2022-03-02 05:04:00+00:00,285.0,8.43,291.0,10.59,12.17,47.59359,-54.27349
2022-03-02 05:14:01+00:00,286.0,8.35,281.0,10.58,12.09,47.59359,-54.27349
2022-03-02 05:24:01+00:00,298.0,6.0,290.0,9.24,12.09,47.59359,-54.27349
2022-03-02 05:34:01+00:00,278.0,7.74,273.0,9.69,12.09,47.59359,-54.27349
2022-03-02 05:44:01+00:00,325.0,1.26,298.0,4.1,12.09,47.59359,-54.27349
2022-03-02 05:54:01+00:00,284.0,3.77,277.0,5.22,12.09,47.59359,-54.27349
2022-03-02 06:04:01+00:00,299.0,2.25,287.0,4.07,12.09,47.59359,-54.27349
2022-03-02 06:14:00+00:00,275.0,3.7,266.0,4.37,12.09,47.59359,-54.27349
2022-03-02 06:24:00+00:00,238.0,3.84,238.0,5.36,12.09,47.59359,-54.27349
2022-03-02 06:34:00+00:00,252.0,4.33,258.0,5.3,12.09,47.59359,-54.27349
2022-03-02 06:44:00+00:00,248.0,4.94,255.0,7.1,12.09,47.59359,-54.27349
2022-03-02 06:54:00+00:00,235.0,3.33,251.0,4.87,12.09,47.59359,-54.27349
2022-03-02 07:04:00+00:00,257.0,2.7,274.0,3.78,12.09,47.59359,-54.27349
2022-03-02 07:14:00+00:00,244.0,3.61,245.0,4.45,12.09,47.59359,-54.27349
2022-03-02 07:24:00+00:00,240.0,4.16,247.0,5.1,12.09,47.59359,-54.27349
2022-03-02 07:34:00+00:00,245.0,3.24,261.0,4.59,12.09,47.59359,-54.27349
2022-03-02 07:44:00+00:00,267.0,3.74,275.0,4.8,12.09,47.59359,-54.27349
2022-03-02 07:54:00+00:00,259.0,3.75,263.0,4.56,12.09,47.59359,-54.27349
2022-03-02 08:04:00+00:00,241.0,3.82,240.0,4.29,12.09,47.59359,-54.27349
2022-03-02 08:14:01+00:00,259.0,3.71,254.0,4.75,12.09,47.59359,-54.27349
2022-03-02 08:24:01+00:00,260.0,3.44,262.0,3.94,12.09,47.59359,-54.27349
2022-03-02 08:34:01+00:00,243.0,3.03,242.0,4.41,12.09,47.59359,-54.27349
2022-03-02 08:44:01+00:00,272.0,4.57,277.0,5.47,12.09,47.59359,-54.27349
2022-03-02 08:54:01+00:00,276.0,3.98,275.0,5.14,12.09,47.59359,-54.27349
2022-03-02 09:04:01+00:00,283.0,3.06,278.0,4.21,12.09,47.59359,-54.27349
2022-03-02 09:14:01+00:00,271.0,4.14,271.0,6.19,12.09,47.59359,-54.27349
2022-03-02 09:24:01+00:00,243.0,4.7,231.0,6.11,12.09,47.59359,-54.27349
2022-03-02 09:34:01+00:00,242.0,6.04,257.0,8.94,12.09,47.59359,-54.27349
2022-03-02 09:44:01+00:00,206.0,4.46,202.0,5.61,12.09,47.59359,-54.27349
2022-03-02 09:54:01+00:00,221.0,4.71,238.0,8.31,12.09,47.59359,-54.27349
2022-03-02 10:04:01+00:00,231.0,8.21,234.0,10.95,12.09,47.59359,-54.27349
2022-03-02 10:14:00+00:00,241.0,8.58,247.0,10.06,12.09,47.59359,-54.27349
2022-03-02 10:24:00+00:00,247.0,9.04,250.0,13.52,12.09,47.59359,-54.27349
2022-03-02 10:34:00+00:00,255.0,8.55,269.0,12.53,12.09,47.59359,-54.27349
2022-03-02 10:44:00+00:00,256.0,8.1,263.0,13.08,12.09,47.59359,-54.27349
2022-03-02 10:54:00+00:00,221.0,3.71,245.0,5.07,12.09,47.59359,-54.27349
2022-03-02 11:04:00+00:00,217.0,4.28,244.0,7.85,12.09,47.59359,-54.27349
2022-03-02 11:14:00+00:00,225.0,5.24,235.0,9.45,13.44,47.59359,-54.27349
2022-03-02 11:24:00+00:00,233.0,5.46,242.0,8.61,13.44,47.59359,-54.27349
2022-03-02 11:34:00+00:00,228.0,3.83,243.0,6.52,13.44,47.59359,-54.27349
2022-03-02 11:44:00+00:00,252.0,7.76,260.0,12.59,13.44,47.59359,-54.27349
2022-03-02 11:54:00+00:00,249.0,6.76,260.0,11.49,13.44,47.59359,-54.27349
2022-03-02 12:04:00+00:00,215.0,5.39,222.0,6.54,13.44,47.59359,-54.27349
2022-03-02 13:14:00+00:00,228.0,5.01,228.0,5.98,13.68,47.59359,-54.27349
2022-03-02 13:24:00+00:00,218.0,6.29,215.0,6.85,13.68,47.59359,-54.27349
2022-03-02 13:34:00+00:00,215.0,6.84,204.0,7.84,13.68,47.59359,-54.27349
2022-03-02 13:44:00+00:00,213.0,6.72,212.0,8.12,13.68,47.59359,-54.27349
2022-03-02 13:54:00+00:00,214.0,7.46,210.0,8.58,13.68,47.59359,-54.27349
2022-03-02 14:04:00+00:00,213.0,8.58,217.0,10.57,13.68,47.59359,-54.27349
2022-03-02 14:14:01+00:00,203.0,9.01,215.0,10.88,13.76,47.59359,-54.27349
2022-03-02 14:24:01+00:00,217.0,8.86,228.0,11.12,13.76,47.59359,-54.27349
2022-03-02 14:34:01+00:00,203.0,9.67,205.0,10.57,13.76,47.59359,-54.27349
2022-03-02 14:44:01+00:00,213.0,7.53,212.0,8.39,13.76,47.59359,-54.27349
2022-03-02 14:54:01+00:00,209.0,10.27,216.0,12.18,13.76,47.59359,-54.27349
2022-03-02 15:04:01+00:00,213.0,8.46,212.0,9.69,13.76,47.59359,-54.27349
2022-03-02 16:14:01+00:00,210.0,9.35,202.0,10.51,13.68,47.59359,-54.27349
2022-03-02 16:24:01+00:00,204.0,11.13,204.0,12.45,13.68,47.59359,-54.27349
2022-03-02 16:34:01+00:00,199.0,12.35,200.0,13.74,13.68,47.59359,-54.27349
2022-03-02 16:44:01+00:00,202.0,11.07,203.0,12.48,13.68,47.59359,-54.27349
2022-03-02 16:54:01+00:00,199.0,10.95,195.0,12.34,13.68,47.59359,-54.27349
2022-03-02 17:04:01+00:00,202.0,10.11,201.0,11.17,13.68,47.59359,-54.27349
2022-03-02 17:14:01+00:00,198.0,10.85,200.0,12.53,13.68,47.59359,-54.27349
2022-03-02 17:24:01+00:00,196.0,10.66,202.0,11.81,13.68,47.59359,-54.27349
2022-03-02 17:34:01+00:00,198.0,10.42,196.0,11.99,13.68,47.59359,-54.27349
2022-03-02 17:44:01+00:00,200.0,8.9,192.0,10.09,13.68,47.59359,-54.27349
2022-03-02 17:54:01+00:00,196.0,8.76,193.0,10.85,13.68,47.59359,-54.27349
2022-03-02 18:04:01+00:00,203.0,10.32,198.0,11.05,13.68,47.59359,-54.27349
2022-03-02 18:14:00+00:00,186.0,9.77,194.0,10.83,13.53,47.59359,-54.27349
2022-03-02 18:24:00+00:00,186.0,9.02,197.0,10.24,13.53,47.59359,-54.27349
2022-03-02 18:34:00+00:00,185.0,10.81,188.0,12.13,13.53,47.59359,-54.27349
2022-03-02 18:44:00+00:00,179.0,8.68,183.0,9.76,13.53,47.59359,-54.27349
2022-03-02 18:54:00+00:00,200.0,11.45,195.0,13.22,13.53,47.59359,-54.27349
2022-03-02 19:04:00+00:00,193.0,9.94,199.0,11.38,13.53,47.59359,-54.27349
2022-03-02 19:14:01+00:00,179.0,10.92,183.0,11.98,13.53,47.59359,-54.27349
2022-03-02 19:24:01+00:00,178.0,11.16,184.0,12.29,13.53,47.59359,-54.27349
2022-03-02 19:34:01+00:00,172.0,9.99,175.0,11.81,13.53,47.59359,-54.27349
2022-03-02 19:44:01+00:00,171.0,9.22,167.0,10.79,13.53,47.59359,-54.27349
2022-03-02 19:54:01+00:00,172.0,9.55,180.0,10.83,13.53,47.59359,-54.27349
2022-03-02 20:04:01+00:00,175.0,10.19,172.0,11.59,13.53,47.59359,-54.27349
2022-03-02 20:14:01+00:00,173.0,10.75,196.0,11.87,13.29,47.59359,-54.27349
2022-03-02 20:24:01+00:00,172.0,11.13,172.0,12.94,13.29,47.59359,-54.27349
2022-03-02 20:34:01+00:00,173.0,9.3,166.0,10.73,13.29,47.59359,-54.27349
2022-03-02 20:44:01+00:00,180.0,10.69,177.0,12.37,13.29,47.59359,-54.27349
2022-03-02 20:54:01+00:00,181.0,11.64,188.0,13.05,13.29,47.59359,-54.27349
2022-03-02 21:04:01+00:00,171.0,11.47,169.0,12.78,13.29,47.59359,-54.27349
2022-03-02 21:14:00+00:00,178.0,10.68,186.0,12.11,12.81,47.59359,-54.27349
2022-03-02 21:24:00+00:00,188.0,8.99,193.0,10.42,12.81,47.59359,-54.27349
2022-03-02 21:34:00+00:00,188.0,9.71,191.0,11.01,12.81,47.59359,-54.27349
2022-03-02 21:44:00+00:00,188.0,9.49,184.0,10.43,12.81,47.59359,-54.27349
2022-03-02 21:54:00+00:00,182.0,9.57,188.0,10.47,12.81,47.59359,-54.27349
2022-03-02 22:04:00+00:00,189.0,8.59,194.0,10.01,12.81,47.59359,-54.27349
2022-03-02 22:14:01+00:00,183.0,10.0,187.0,12.08,12.49,47.59359,-54.27349
2022-03-02 22:24:01+00:00,186.0,10.18,184.0,11.38,12.49,47.59359,-54.27349
2022-03-02 22:34:01+00:00,186.0,11.76,165.0,13.37,12.49,47.59359,-54.27349
2022-03-02 22:44:01+00:00,184.0,11.8,187.0,13.26,12.49,47.59359,-54.27349
2022-03-02 22:54:01+00:00,184.0,10.58,187.0,13.58,12.49,47.59359,-54.27349
2022-03-02 23:04:01+00:00,175.0,12.66,169.0,14.22,12.49,47.59359,-54.27349
2022-03-02 23:14:01+00:00,181.0,12.46,185.0,13.73,12.41,47.59359,-54.27349
2022-03-02 23:24:01+00:00,166.0,13.18,151.0,15.59,12.41,47.59359,-54.27349
2022-03-02 23:34:01+00:00,182.0,11.69,177.0,13.36,12.41,47.59359,-54.27349
2022-03-02 23:44:01+00:00,181.0,12.36,174.0,14.48,12.41,47.59359,-54.27349
2022-03-02 23:54:01+00:00,179.0,11.19,182.0,13.3,12.41,47.59359,-54.27349
